�N����,����,�~����,�C��,���x,�C��,����,���ϕ���,�ő�u�ԕ���,�ő厞����,���˗�,�I�_���x,�n�����x,�ő啗���N��,DTYPE
"23/07/16","00:10",0.0,26.8,84.1,1005.0,275.2,0.7,1.3,269.4,0.00,23.9,25.1,"00:03:36",1
"23/07/16","00:20",0.0,26.7,83.6,1004.8,318.7,0.6,2.4,339.9,0.00,23.7,25.0,"00:15:12",1
"23/07/16","00:30",0.0,26.9,82.6,1005.0,284.5,1.0,1.6,292.5,0.00,23.7,25.0,"00:26:08",1
"23/07/16","00:40",0.0,27.0,81.9,1004.8,292.5,1.0,2.2,234.8,0.00,23.7,25.0,"00:31:04",1
"23/07/16","00:50",0.0,27.2,81.1,1005.0,284.5,1.1,2.0,286.8,0.00,23.7,24.8,"00:45:04",1
"23/07/16","01:00",0.0,27.4,80.0,1005.2,288.9,1.2,2.2,252.7,0.00,23.7,24.8,"00:52:56",1
"23/07/16","01:10",0.0,27.5,79.4,1004.8,293.6,1.1,2.5,336.9,0.00,23.7,25.1,"01:08:08",1
"23/07/16","01:20",0.0,27.3,79.6,1004.5,244.4,0.6,1.4,346.0,0.00,23.5,24.9,"01:10:48",1
"23/07/16","01:30",0.0,27.2,80.3,1005.0,333.9,0.6,1.8,357.6,0.00,23.6,25.0,"01:28:40",1
"23/07/16","01:40",0.0,27.0,81.3,1004.5,303.0,0.2,1.3,316.0,0.00,23.6,24.8,"01:39:20",1
"23/07/16","01:50",0.0,26.9,81.9,1004.8,349.1,0.8,1.8,326.4,0.00,23.6,25.1,"01:49:12",1
"23/07/16","02:00",0.0,27.0,82.0,1004.8,318.5,1.0,1.7,322.3,0.00,23.7,25.0,"01:50:56",1
"23/07/16","02:10",0.0,27.2,81.5,1004.8,291.5,1.0,1.9,315.3,0.00,23.8,24.9,"02:06:08",1
"23/07/16","02:20",0.0,27.4,80.8,1004.8,293.1,1.1,2.0,342.7,0.00,23.8,24.7,"02:14:16",1
"23/07/16","02:30",0.0,27.4,80.5,1005.0,311.7,1.1,2.1,330.0,0.00,23.8,24.7,"02:22:00",1
"23/07/16","02:40",0.0,27.6,80.2,1005.0,317.2,1.7,4.0,339.8,0.00,23.9,24.8,"02:32:40",1
"23/07/16","02:50",0.0,27.6,79.9,1005.0,326.7,1.2,3.6,340.2,0.00,23.9,24.7,"02:46:16",1
"23/07/16","03:00",0.0,27.7,79.9,1005.0,316.4,1.5,3.6,331.7,0.00,24.0,24.7,"02:51:52",1
"23/07/16","03:10",0.0,27.4,80.1,1004.8,262.2,0.6,2.4,240.0,0.00,23.7,24.6,"03:00:32",1
"23/07/16","03:20",0.0,27.2,81.0,1004.8,326.9,0.5,1.2,340.2,0.00,23.7,24.8,"03:10:02",1
"23/07/16","03:30",0.0,27.0,82.0,1005.0,313.4,0.8,1.7,249.5,0.00,23.7,24.6,"03:27:36",1
"23/07/16","03:40",0.0,26.9,82.6,1005.0,2.6,0.5,1.1,327.8,0.00,23.7,24.6,"03:30:16",1
"23/07/16","03:50",0.0,26.8,83.1,1005.0,298.3,0.6,1.1,264.8,0.00,23.7,24.7,"03:46:32",1
"23/07/16","04:00",0.0,26.6,83.6,1005.2,321.7,0.3,1.1,329.8,0.00,23.6,24.7,"03:55:36",1
"23/07/16","04:10",0.0,26.6,84.1,1005.0,318.2,1.0,2.6,334.8,0.00,23.7,24.8,"04:07:36",1
"23/07/16","04:20",0.0,26.6,84.3,1005.0,322.4,1.1,2.4,331.6,0.00,23.8,24.8,"04:10:02",1
"23/07/16","04:30",0.4,26.7,84.4,1005.0,318.5,0.7,1.7,315.5,0.00,23.9,24.9,"04:20:16",1
"23/07/16","04:40",0.2,26.6,85.3,1005.0,332.6,0.7,2.0,346.5,0.00,24.0,24.7,"04:30:02",1
"23/07/16","04:50",0.0,26.3,86.4,1005.0,349.1,0.8,2.1,337.5,0.00,23.9,24.4,"04:48:00",1
"23/07/16","05:00",0.2,26.0,87.4,1005.2,338.4,1.1,2.7,344.3,0.00,23.8,24.7,"04:58:24",1
"23/07/16","05:10",0.2,25.9,88.4,1005.2,343.2,1.3,2.6,348.9,0.00,23.9,24.7,"05:07:04",1
"23/07/16","05:20",0.0,25.7,89.1,1005.0,344.6,1.2,1.9,358.1,0.00,23.8,24.6,"05:12:08",1
"23/07/16","05:30",0.0,25.8,89.7,1005.5,335.5,0.7,1.2,334.8,0.00,24.0,24.6,"05:22:16",1
"23/07/16","05:40",0.0,25.8,90.2,1005.5,339.3,1.0,1.8,314.4,0.00,24.1,24.7,"05:30:02",1
"23/07/16","05:50",0.0,25.7,90.7,1005.5,333.0,1.2,2.5,336.6,0.00,24.1,24.7,"05:46:24",1
"23/07/16","06:00",0.2,25.8,91.0,1005.7,294.9,1.0,1.6,311.3,0.02,24.3,24.7,"05:50:24",1
"23/07/16","06:10",0.0,25.8,91.2,1005.7,325.3,1.0,1.9,336.6,0.02,24.3,24.6,"06:03:04",1
"23/07/16","06:20",0.0,26.1,91.6,1005.7,328.2,1.0,1.8,345.5,0.06,24.7,24.5,"06:16:08",1
"23/07/16","06:30",0.0,26.1,91.6,1005.7,343.2,1.2,2.4,347.6,0.06,24.7,24.5,"06:27:28",1
"23/07/16","06:40",0.0,26.0,91.8,1006.0,339.1,1.5,2.6,336.4,0.05,24.6,24.5,"06:31:04",1
"23/07/16","06:50",0.0,26.3,91.8,1006.0,346.3,0.8,1.7,342.4,0.06,24.9,24.7,"06:47:20",1
"23/07/16","07:00",0.0,26.4,91.9,1006.4,342.9,1.1,2.1,339.5,0.07,25.0,24.6,"06:56:24",1
"23/07/16","07:10",0.0,26.6,91.6,1006.2,338.7,1.2,2.5,338.6,0.11,25.2,24.6,"07:09:12",1
"23/07/16","07:20",0.0,27.0,91.3,1006.2,307.9,1.0,2.2,340.2,0.19,25.5,24.6,"07:12:48",1
"23/07/16","07:30",0.0,27.3,90.6,1006.0,353.6,1.1,1.7,334.8,0.17,25.7,24.6,"07:23:36",1
"23/07/16","07:40",0.0,27.7,88.9,1006.0,347.5,1.3,2.8,351.1,0.23,25.7,24.8,"07:36:48",1
"23/07/16","07:50",0.0,28.5,87.0,1005.5,321.2,0.7,2.7,14.9,0.21,26.2,24.7,"07:42:00",1
"23/07/16","08:00",0.0,29.0,82.7,1005.2,258.6,0.8,2.0,193.0,0.22,25.8,24.6,"07:52:48",1
"23/07/16","08:10",0.0,29.1,78.6,1005.7,213.5,1.5,4.8,236.3,0.17,25.0,24.5,"08:04:16",1
"23/07/16","08:20",0.0,29.3,76.0,1006.0,216.7,2.0,4.0,235.6,0.17,24.7,24.5,"08:12:48",1
"23/07/16","08:30",0.0,29.6,75.4,1005.7,221.8,1.1,2.6,168.1,0.14,24.8,24.7,"08:22:56",1
"23/07/16","08:40",0.0,30.1,75.2,1006.0,325.4,0.8,2.6,240.8,0.20,25.3,24.7,"08:30:02",1
"23/07/16","08:50",0.0,30.1,73.9,1006.0,196.6,1.1,2.4,186.6,0.16,25.0,24.6,"08:45:28",1
"23/07/16","09:00",0.0,31.2,72.4,1006.2,111.7,0.8,2.4,177.1,0.33,25.7,24.7,"08:50:02",1
"23/07/16","09:10",0.0,31.0,69.2,1006.7,221.8,1.1,2.9,256.1,0.20,24.7,24.8,"09:01:28",1
"23/07/16","09:20",0.0,30.8,70.4,1006.7,255.8,1.2,3.7,223.9,0.22,24.8,24.8,"09:17:04",1
"23/07/16","09:30",0.0,31.5,68.3,1007.1,217.5,1.3,3.2,231.6,0.39,25.0,24.8,"09:24:40",1
"23/07/16","09:40",0.0,31.6,67.6,1007.1,210.1,2.1,4.8,192.1,0.42,24.9,24.8,"09:34:32",1
"23/07/16","09:50",0.0,32.7,65.0,1007.4,56.8,1.1,2.8,239.9,0.45,25.3,24.9,"09:49:28",1
"23/07/16","10:00",0.0,31.7,66.5,1007.4,239.5,1.7,4.1,227.4,0.30,24.7,24.9,"09:55:36",1
"23/07/16","10:10",0.0,32.1,66.3,1007.4,225.7,1.5,3.5,178.6,0.32,25.1,25.1,"10:00:24",1
"23/07/16","10:20",0.0,32.3,65.4,1007.4,298.0,1.6,5.5,352.1,0.45,25.0,24.9,"10:18:32",1
"23/07/16","10:30",0.0,32.2,66.0,1007.4,342.7,2.2,4.8,343.2,0.39,25.1,24.9,"10:26:40",1
"23/07/16","10:40",0.0,31.9,65.1,1007.1,341.4,1.2,3.2,348.5,0.26,24.6,25.1,"10:36:56",1
"23/07/16","10:50",0.0,32.5,66.5,1007.1,275.2,1.1,3.1,354.0,0.43,25.5,25.2,"10:49:04",1
"23/07/16","11:00",0.0,33.4,63.5,1007.1,225.3,1.0,3.9,225.5,0.48,25.6,25.1,"10:51:52",1
"23/07/16","11:10",0.0,33.9,64.4,1007.4,217.6,2.2,4.4,252.9,0.56,26.3,25.0,"11:02:16",1
"23/07/16","11:20",0.0,34.1,62.1,1007.6,209.8,1.6,4.2,221.9,0.58,25.8,25.3,"11:10:24",1
"23/07/16","11:30",0.0,34.2,60.2,1007.6,270.7,1.6,3.3,241.9,0.59,25.4,25.4,"11:27:52",1
"23/07/16","11:40",0.0,34.0,59.6,1008.1,243.5,1.7,3.3,273.6,0.46,25.1,25.4,"11:34:16",1
"23/07/16","11:50",0.0,32.9,61.9,1007.6,309.8,1.2,2.8,348.2,0.17,24.7,25.7,"11:42:48",1
"23/07/16","12:00",0.0,32.7,63.3,1007.1,327.5,1.7,5.0,352.5,0.25,24.9,25.7,"11:54:56",1
"23/07/16","12:10",0.0,33.8,61.5,1007.4,219.6,1.8,4.4,238.4,0.54,25.4,25.5,"12:03:20",1
"23/07/16","12:20",0.0,34.9,60.1,1007.6,200.8,1.7,4.7,229.1,0.64,26.0,25.9,"12:14:48",1
"23/07/16","12:30",0.0,34.3,56.9,1007.8,227.6,2.2,5.9,236.6,0.56,24.6,25.7,"12:22:00",1
"23/07/16","12:40",0.0,34.5,58.3,1007.4,281.5,1.3,4.0,223.7,0.51,25.2,25.8,"12:34:48",1
"23/07/16","12:50",0.0,34.8,53.2,1007.8,252.7,1.3,2.5,228.6,0.48,23.9,26.0,"12:41:28",1
"23/07/16","13:00",0.0,34.3,54.2,1007.6,266.8,2.1,4.8,240.9,0.51,23.8,25.7,"12:58:00",1
"23/07/16","13:10",0.0,34.7,52.5,1007.6,264.6,1.3,3.5,246.8,0.54,23.6,25.9,"13:00:32",1
"23/07/16","13:20",0.0,34.7,53.0,1008.1,273.3,1.8,5.4,219.9,0.54,23.8,26.1,"13:19:36",1
"23/07/16","13:30",0.0,34.9,55.3,1007.8,218.5,1.8,7.0,214.9,0.52,24.6,26.2,"13:21:20",1
"23/07/16","13:40",0.0,35.0,51.0,1007.8,222.0,2.0,4.5,200.5,0.51,23.4,26.1,"13:31:12",1
"23/07/16","13:50",0.0,35.0,51.2,1007.6,204.1,1.8,4.8,227.3,0.50,23.5,26.2,"13:42:48",1
"23/07/16","14:00",0.0,35.0,50.4,1007.4,246.0,1.8,4.5,243.1,0.48,23.2,26.2,"13:54:16",1
"23/07/16","14:10",0.0,35.3,52.6,1008.1,261.2,1.2,2.8,238.6,0.47,24.2,26.3,"14:05:28",1
"23/07/16","14:20",0.0,35.3,50.8,1007.6,236.2,1.6,4.0,215.4,0.45,23.6,26.3,"14:14:08",1
"23/07/16","14:30",0.0,35.3,52.9,1007.4,265.0,1.3,3.6,215.5,0.34,24.3,26.2,"14:21:04",1
"23/07/16","14:40",0.0,34.9,50.7,1007.4,203.5,2.1,5.0,232.4,0.37,23.2,26.2,"14:36:32",1
"23/07/16","14:50",0.0,34.9,49.1,1006.7,218.9,3.1,7.4,225.0,0.42,22.7,26.4,"14:40:48",1
"23/07/16","15:00",0.0,34.7,47.6,1006.9,220.0,3.0,6.3,216.4,0.40,22.0,26.4,"14:59:36",1
"23/07/16","15:10",0.0,34.9,49.2,1006.7,180.9,1.8,4.2,234.9,0.38,22.7,26.7,"15:00:08",1
"23/07/16","15:20",0.0,34.9,49.1,1006.4,209.3,2.7,7.0,199.9,0.36,22.7,26.5,"15:12:48",1
"23/07/16","15:30",0.0,34.7,47.7,1006.4,219.6,2.7,5.4,194.0,0.34,22.0,26.3,"15:26:56",1
"23/07/16","15:40",0.0,34.7,47.8,1006.4,215.4,2.3,4.7,229.7,0.32,22.0,26.6,"15:32:48",1
"23/07/16","15:50",0.0,35.0,47.4,1006.7,233.6,1.7,4.0,236.8,0.30,22.2,26.4,"15:41:28",1
"23/07/16","16:00",0.0,34.8,47.8,1006.7,230.0,2.1,4.0,247.1,0.28,22.1,26.7,"15:51:28",1
"23/07/16","16:10",0.0,34.7,46.5,1006.7,245.5,1.7,3.5,236.1,0.26,21.6,26.5,"16:00:32",1
"23/07/16","16:20",0.0,34.9,47.7,1006.4,267.6,1.1,3.2,241.9,0.23,22.2,26.5,"16:12:40",1
"23/07/16","16:30",0.0,34.7,49.9,1006.4,309.8,1.6,4.0,1.2,0.21,22.8,26.6,"16:24:40",1
"23/07/16","16:40",0.0,34.6,49.7,1006.4,330.0,1.5,2.7,352.2,0.19,22.6,26.6,"16:35:20",1
"23/07/16","16:50",0.0,34.3,49.0,1006.2,321.0,1.6,3.5,342.4,0.17,22.1,26.6,"16:42:16",1
"23/07/16","17:00",0.0,34.4,50.3,1006.2,305.1,1.2,3.3,356.5,0.15,22.6,26.7,"16:55:20",1
"23/07/16","17:10",0.0,34.3,49.0,1006.4,297.7,1.2,3.9,334.4,0.05,22.1,26.7,"17:09:36",1
"23/07/16","17:20",0.0,34.3,50.1,1006.2,287.5,1.2,3.9,316.6,0.00,22.5,26.7,"17:14:56",1
"23/07/16","17:30",0.0,34.1,50.8,1006.4,245.5,1.2,2.8,237.3,0.00,22.5,26.6,"17:25:52",1
"23/07/16","17:40",0.0,33.7,51.7,1006.2,230.7,1.8,4.2,238.8,0.00,22.4,26.6,"17:36:16",1
"23/07/16","17:50",0.0,33.5,51.3,1006.2,258.1,1.3,3.1,225.3,0.00,22.1,26.7,"17:49:44",1
"23/07/16","18:00",0.0,33.2,51.7,1006.2,244.4,1.6,3.3,241.1,0.00,22.0,26.7,"17:50:24",1
"23/07/16","18:10",0.0,32.9,52.8,1006.2,230.6,1.2,3.1,191.5,0.00,22.0,26.6,"18:06:48",1
"23/07/16","18:20",0.0,32.7,52.1,1006.4,266.3,1.0,2.9,233.8,0.00,21.6,26.4,"18:18:32",1
"23/07/16","18:30",0.0,32.4,56.1,1006.4,289.1,0.8,1.9,327.1,0.00,22.6,26.2,"18:25:12",1
"23/07/16","18:40",0.0,31.5,55.7,1005.7,277.3,0.8,2.7,229.4,0.00,21.6,26.5,"18:30:02",1
"23/07/16","18:50",0.0,31.1,56.2,1006.0,246.9,1.0,3.5,230.4,0.00,21.4,26.4,"18:40:16",1
"23/07/16","19:00",0.0,30.4,62.9,1005.2,349.7,0.8,1.6,38.7,0.00,22.6,26.3,"18:55:12",1
"23/07/16","19:10",0.0,29.2,65.5,1005.0,335.2,0.3,0.9,352.2,0.00,22.1,26.4,"19:09:52",1
"23/07/16","19:20",0.0,28.5,66.3,1004.8,336.2,1.0,2.1,315.5,0.00,21.6,26.5,"19:18:56",1
"23/07/16","19:30",0.0,28.4,66.9,1005.0,332.0,1.0,1.9,333.8,0.00,21.7,26.2,"19:24:48",1
"23/07/16","19:40",0.0,28.3,68.2,1005.0,335.4,1.1,1.9,340.6,0.00,21.9,26.3,"19:33:20",1
"23/07/16","19:50",0.0,27.6,69.4,1005.7,340.1,0.8,2.4,345.2,0.00,21.5,26.2,"19:48:56",1
"23/07/16","20:00",0.0,27.5,70.6,1005.7,330.4,0.8,1.8,327.1,0.00,21.7,26.1,"19:51:04",1
"23/07/16","20:10",0.0,27.3,72.1,1006.0,353.4,0.7,1.4,345.4,0.00,21.9,26.3,"20:00:16",1
"23/07/16","20:20",0.0,26.6,74.0,1006.4,276.8,0.5,1.1,192.9,0.00,21.6,26.2,"20:15:36",1
"23/07/16","20:30",0.0,26.5,75.6,1006.4,349.9,1.0,1.9,346.8,0.00,21.9,25.9,"20:29:28",1
"23/07/16","20:40",0.0,26.6,76.2,1007.1,340.7,1.6,3.3,342.3,0.00,22.1,26.0,"20:39:12",1
"23/07/16","20:50",0.0,26.6,76.6,1006.9,337.9,1.2,2.2,340.4,0.00,22.2,25.9,"20:47:52",1
"23/07/16","21:00",0.0,26.3,76.7,1007.1,306.5,1.1,2.4,342.5,0.00,21.9,26.1,"20:56:40",1
"23/07/16","21:10",0.0,26.5,75.6,1007.1,324.9,1.3,2.8,337.3,0.00,21.9,25.9,"21:03:28",1
"23/07/16","21:20",0.0,26.5,75.1,1007.6,315.4,1.3,2.2,345.4,0.00,21.8,25.7,"21:10:16",1
"23/07/16","21:30",0.0,26.4,75.3,1007.4,314.1,1.1,2.1,321.6,0.00,21.7,25.7,"21:27:36",1
"23/07/16","21:40",0.0,26.2,76.4,1007.4,315.5,1.2,1.9,330.8,0.00,21.8,25.7,"21:37:52",1
"23/07/16","21:50",0.0,26.0,77.9,1007.8,338.0,1.6,2.9,319.5,0.00,21.9,25.9,"21:40:08",1
"23/07/16","22:00",0.0,25.6,79.2,1007.6,339.2,1.2,2.1,342.5,0.00,21.8,25.8,"21:59:36",1
"23/07/16","22:10",0.0,25.5,80.1,1007.6,344.6,1.2,2.2,340.2,0.00,21.9,25.5,"22:00:56",1
"23/07/16","22:20",0.0,25.5,80.6,1007.8,336.7,1.6,2.8,352.3,0.00,22.0,25.5,"22:12:16",1
"23/07/16","22:30",0.0,25.5,80.9,1007.6,334.9,1.2,2.2,337.4,0.00,22.0,25.5,"22:22:56",1
"23/07/16","22:40",0.0,25.4,81.4,1008.1,326.1,1.1,1.7,343.1,0.00,22.0,25.5,"22:30:40",1
"23/07/16","22:50",0.0,25.3,81.9,1008.3,329.3,1.3,2.2,348.3,0.00,22.0,25.5,"22:49:44",1
"23/07/16","23:00",0.0,25.3,82.2,1008.1,342.5,1.6,3.1,351.2,0.00,22.1,25.6,"22:57:52",1
"23/07/16","23:10",0.0,25.2,82.2,1008.1,346.2,1.6,3.1,328.7,0.00,22.0,25.6,"23:03:12",1
"23/07/16","23:20",0.0,25.3,82.2,1008.3,346.9,1.7,2.9,352.0,0.00,22.1,25.5,"23:18:16",1
"23/07/16","23:30",0.0,25.3,82.1,1007.8,341.9,2.0,3.7,341.1,0.00,22.1,25.5,"23:22:40",1
"23/07/16","23:40",0.0,25.4,81.8,1008.1,342.8,2.0,4.1,342.7,0.00,22.1,25.3,"23:38:00",1
"23/07/16","23:50",0.0,25.4,82.0,1008.3,340.9,2.0,3.6,347.1,0.00,22.1,25.2,"23:47:28",1
"23/07/16","24:00",0.0,25.2,82.5,1008.1,343.7,1.7,2.7,319.5,0.00,22.0,25.3,"23:50:16",1
